CAPE
0 0 0 0 0 0 0 0 0 0 0 0 0 0 0 0 5 39 633 955 929 944 1378 1320 1451 1792 1755 1683 1665 1696 1728 1749 1607 1325 1345 1286 1220 927 850 977 1199 1234 954 938 835 691 647 554 595
0 0 0 0 0 0 0 0 0 0 0 0 0 0 0 0 455 712 874 952 967 1208 1320 1229 1346 1672 1591 1531 1615 1626 1563 1457 1384 1337 1114 993 865 692 594 481 819 783 423 569 479 474 421 430 426
0 0 0 0 0 0 0 0 0 0 0 0 0 0 0 49 595 944 819 1233 1235 1059 1267 1217 1287 1582 1500 1550 1546 1467 1324 1291 1240 1043 680 560 464 339 275 242 336 290 140 112 94 66 91 118 131
0 0 0 0 0 0 0 0 0 0 0 0 0 0 0 289 303 1059 1013 1350 1128 1057 1112 1233 1309 1569 1546 1594 1483 1366 1280 1229 1124 982 628 326 272 211 264 260 201 29 90 5 3 3 2 2 0
0 0 0 0 0 0 0 0 0 0 0 0 0 0 0 374 1137 1155 1118 1266 1257 1114 1141 1146 1240 1345 1411 1524 1520 1430 1347 1399 1295 1069 742 457 189 38 16 17 4 3 3 2 2 1 0 0 0
0 0 0 0 0 0 0 0 2 0 0 0 0 1 0 133 1075 1161 1285 1213 1215 1164 1204 1184 1159 1149 1140 1212 1239 1238 1191 1090 945 699 489 185 62 45 10 4 2 0 0 0 0 0 0 0 0
0 0 0 0 0 0 0 0 0 0 0 0 0 0 0 277 986 1080 1135 1398 1250 1176 1106 1205 1043 994 943 863 779 705 735 626 534 342 174 66 30 3 0 0 0 0 0 0 0 0 0 0 0
0 0 0 0 0 0 0 0 0 1 0 0 0 0 0 394 1209 1136 1016 1219 1383 1259 983 972 935 855 776 682 619 505 373 235 136 84 49 24 0 1 10 18 3 0 0 0 0 0 0 0 0
0 0 0 0 0 0 1 0 0 0 0 0 0 0 384 786 1240 1155 1109 1268 1423 1249 1028 887 806 722 672 563 495 405 295 160 98 75 34 21 22 29 26 0 0 0 0 0 0 0 0 0 0
1 4 0 4 0 1 0 0 0 0 0 0 0 0 1261 1387 1310 1204 1152 1067 1221 1251 1046 859 753 637 583 516 456 357 298 115 68 40 32 31 36 4 0 0 0 0 0 0 0 0 0 0 0
0 0 0 4 0 0 0 0 0 0 0 0 0 0 55 1054 1069 1074 1284 973 1173 1081 1096 1263 782 626 519 413 364 212 398 80 55 38 48 29 0 0 0 0 0 0 0 0 0 0 0 0 0
0 0 0 0 0 1 0 0 0 0 0 0 0 0 0 791 993 824 973 967 1044 991 1008 1213 919 713 548 419 386 147 233 70 54 52 33 0 0 0 0 0 0 0 0 0 0 0 0 0 0
1 0 0 0 0 0 0 0 0 0 0 0 0 0 0 0 435 845 702 708 863 993 1005 794 621 905 578 450 253 216 83 39 32 9 2 0 0 0 0 0 0 0 0 0 0 0 0 0 0
0 0 0 0 0 0 0 0 0 0 0 0 0 0 0 0 0 0 556 506 557 882 983 652 479 473 598 373 169 172 73 9 7 1 0 0 0 0 0 0 0 0 0 0 0 0 0 0 0
0 0 0 0 0 0 0 0 0 0 0 0 0 0 0 0 0 0 3 506 489 692 911 652 447 279 245 206 141 90 22 3 6 1 0 0 0 0 0 0 0 0 0 0 0 0 0 0 0
0 0 0 0 0 0 0 0 0 0 0 0 0 0 0 0 0 0 0 193 619 580 573 475 269 193 240 197 261 92 37 16 0 0 0 0 0 0 0 0 0 0 0 0 0 0 0 0 0
0 0 0 0 0 0 0 0 0 0 0 0 0 0 0 0 0 0 0 0 570 766 610 442 247 160 200 214 149 59 24 3 0 0 0 0 0 0 0 0 0 0 0 0 0 0 0 0 0
0 0 0 0 0 0 0 0 0 0 0 0 0 0 0 0 0 0 0 0 246 684 634 370 159 103 118 137 115 54 28 10 1 0 0 0 0 0 0 0 0 0 0 0 0 0 0 0 0
0 0 0 0 0 0 0 0 0 0 0 0 0 0 0 0 0 0 0 0 129 518 496 280 115 66 98 147 97 135 76 22 20 11 0 0 0 0 0 0 0 0 0 0 0 0 0 0 0
0 0 0 0 0 0 0 0 0 0 0 0 0 0 0 0 0 0 0 0 85 331 309 149 48 17 41 78 104 81 53 11 8 3 0 0 0 0 0 0 0 0 0 0 0 0 0 0 0
0 0 0 0 0 0 0 0 0 0 0 0 0 0 0 0 0 0 0 0 2 130 150 89 15 0 10 62 70 76 48 10 1 7 24 1 0 0 0 0 0 0 0 0 0 0 0 0 0
0 0 0 0 0 0 0 0 0 0 0 0 0 0 0 0 0 0 0 0 0 1 39 63 19 0 0 2 58 82 79 46 53 63 29 0 0 0 0 0 0 0 0 0 0 0 0 0 0
0 0 0 0 0 0 0 0 0 0 0 0 0 0 0 0 0 0 0 0 0 0 0 83 60 7 0 0 2 67 73 71 70 56 3 0 0 0 0 0 0 0 0 0 0 0 0 0 0
0 0 0 0 0 0 0 0 0 0 0 0 0 0 0 0 0 0 0 0 0 0 0 0 55 18 0 0 0 8 91 92 46 10 0 0 0 0 0 0 0 0 0 0 0 0 0 0 0
0 0 0 0 0 0 0 0 0 0 0 0 0 0 0 0 0 0 0 0 0 0 0 0 17 21 0 0 0 0 0 55 60 17 0 0 0 0 0 0 0 0 0 0 0 0 0 0 0
0 0 0 0 0 0 0 0 2 0 0 0 0 0 0 0 0 0 0 0 0 0 0 0 0 16 13 0 0 0 0 0 33 12 0 0 0 0 0 0 0 0 0 0 0 0 0 0 0
0 0 0 0 0 0 0 1 51 19 8 0 0 0 0 0 0 0 0 0 0 0 0 0 0 0 0 5 0 0 0 0 0 1 0 0 0 0 0 0 0 0 0 0 0 0 0 0 0
0 0 0 0 0 0 0 0 0 0 0 0 0 0 0 0 0 0 0 0 0 0 0 0 0 0 0 0 3 0 0 0 0 0 0 0 0 0 0 0 0 0 0 0 0 0 0 0 0
0 0 0 0 0 0 0 0 44 24 0 1 0 0 0 0 0 0 0 0 0 0 0 0 0 0 0 0 2 2 0 0 0 0 0 0 0 0 0 0 0 0 0 0 0 0 0 0 0
0 0 0 0 0 0 0 0 27 28 20 34 15 8 0 0 0 0 0 0 0 0 0 0 0 0 0 0 0 0 0 0 0 0 0 0 0 0 0 0 0 0 0 0 0 0 0 0 0
CIN
0 0 0 0 0 0 0 0 0 0 0 0 0 0 0 0 -14 -20 -63 -83 -198 -159 -51 -47 -22 -2 0 0 0 0 0 0 0 0 0 0 0 0 0 0 0 0 0 0 0 0 0 -1 -2
0 0 0 0 0 0 0 0 0 0 0 0 0 0 0 0 -70 -78 -34 -97 -164 -105 -48 -45 -27 -4 -1 -1 0 0 0 0 0 0 0 0 0 0 0 0 0 0 -8 -2 -3 -1 -2 -2 -1
0 -24 0 0 0 0 0 0 0 0 0 0 0 0 0 -39 -57 -52 -54 -107 -101 -101 -39 -34 -19 -3 -2 0 0 0 -1 0 0 0 0 0 -3 -9 -12 -12 -3 -6 -34 -38 -42 -55 -51 -43 -37
0 0 0 0 0 0 0 0 0 0 0 0 0 0 0 -55 -49 -49 -54 -62 -80 -83 -71 -29 -12 0 0 0 0 0 0 0 0 0 0 -6 -21 -29 -19 -13 -16 -78 -36 -1 0 0 0 0 0
0 0 0 0 0 0 0 0 0 0 0 0 0 0 0 -47 -54 -45 -51 -48 -52 -50 -64 -35 -8 -2 0 0 0 0 0 0 0 0 0 -1 -28 -95 -138 -133 0 0 0 0 0 0 0 0 0
0 0 0 0 0 0 0 -2 -3 0 0 0 0 -20 0 -84 -38 -42 -46 -39 -42 -34 -36 -25 -6 -3 -2 -1 -2 -1 -1 0 0 0 -1 -40 -97 -99 -56 0 0 0 0 0 0 0 0 0 0
0 0 0 0 0 0 0 0 0 0 0 0 0 0 0 -87 -47 -40 -44 -29 -37 -45 -50 -3 -3 -3 -3 -3 -6 -8 -3 0 -1 -15 -60 -121 -156 0 0 0 0 0 0 0 0 0 0 0 0
0 0 0 0 0 0 0 0 0 0 0 0 0 0 0 -60 -49 -56 -46 -25 -12 -15 -44 -27 -2 -4 -5 -8 -13 -15 -12 -34 -65 -102 -136 -189 -5 -8 -162 -137 -61 0 0 0 0 0 0 0 0
0 0 0 0 0 0 -2 0 0 0 0 0 0 0 -40 -68 -50 -47 -33 -17 -7 -2 -4 -15 -9 -16 -18 -15 -12 -11 -16 -47 -82 -103 -140 -171 -161 -131 -133 0 0 0 0 0 0 0 0 0 0
-2 -4 -2 -4 -1 0 0 0 0 0 0 0 0 0 -67 -55 -39 -39 -41 -21 -15 0 -3 -15 -12 -18 -15 -10 -11 -17 -15 -56 -74 -104 -91 -135 -109 -61 0 0 0 0 0 0 0 0 0 0 0
0 0 -1 -22 -7 0 -2 -7 0 0 0 0 0 0 -59 -56 -50 -39 -30 -51 -22 -13 -6 -1 -13 -11 -9 -12 -16 -38 -13 -54 -60 -53 -78 -98 -12 0 0 0 0 0 0 0 0 0 0 0 0
0 0 0 0 0 -6 0 0 0 0 0 0 0 0 0 -68 -60 -83 -55 -48 -41 -31 -26 0 -3 -4 -7 -6 -8 -30 -23 -50 -50 -60 -76 0 0 0 0 0 0 0 0 0 0 0 0 0 0
-6 0 0 0 0 0 0 0 0 0 0 0 0 0 0 0 -70 -62 -68 -53 -32 -14 -7 -16 -22 0 -4 -8 -19 -16 -45 -5 -29 -6 -61 0 0 0 0 0 0 0 0 0 0 0 0 0 0
0 0 0 0 0 0 0 0 0 0 0 0 0 0 0 0 0 0 -46 -57 -52 -20 -2 -33 -61 -31 -5 -13 -37 -41 -20 -10 -4 -66 0 0 0 0 0 0 0 0 0 0 0 0 0 0 0
0 0 0 0 0 0 0 0 0 0 0 0 0 0 0 0 0 0 -8 -51 -80 -69 -19 -40 -53 -69 -56 -39 -46 -56 -55 -73 -58 -23 0 0 0 0 0 0 0 0 0 0 0 0 0 0 0
0 0 0 0 0 0 0 0 0 0 0 0 0 0 0 0 0 0 0 -89 -45 -41 -57 -46 -82 -84 -65 -54 -34 -63 -45 -61 0 0 0 0 0 0 0 0 0 0 0 0 0 0 0 0 0
0 0 0 0 0 0 0 0 0 0 0 0 0 0 0 0 0 0 0 0 -62 -30 -44 -54 -79 -93 -85 -59 -66 -49 -48 -50 0 0 0 0 0 0 0 0 0 0 0 0 0 0 0 0 0
0 0 0 0 0 0 0 0 0 0 0 0 0 0 0 0 0 0 0 0 -104 -44 -38 -46 -87 -107 -95 -77 -65 -50 -6 0 -1 0 0 0 0 0 0 0 0 0 0 0 0 0 0 0 0
0 0 0 0 0 0 0 0 0 0 0 0 0 0 0 0 0 0 0 0 -114 -31 -31 -39 -102 -146 -107 -68 -71 -58 -42 -11 0 -6 0 0 0 0 0 0 0 0 0 0 0 0 0 0 0
0 0 0 0 0 0 0 0 0 0 0 0 0 0 0 0 0 0 0 0 -95 -42 -43 -51 -142 -170 -96 -73 -89 -60 -33 -3 -2 -7 0 0 0 0 0 0 0 0 0 0 0 0 0 0 0
0 0 0 0 0 0 0 0 0 0 0 0 0 0 0 0 0 0 0 0 -7 -30 -37 -84 -145 0 -20 -46 -104 -65 -22 -8 -14 -6 -7 -8 0 0 0 0 0 0 0 0 0 0 0 0 0
0 0 0 0 0 0 0 0 0 0 0 0 0 0 0 0 0 0 0 0 0 -11 -97 -74 -98 0 0 -36 -67 -66 -37 -27 -17 -10 -7 -9 0 0 0 0 0 0 0 0 0 0 0 0 0
0 0 0 0 0 0 0 0 0 0 0 0 0 0 0 0 0 0 0 0 0 0 0 -67 -95 -139 0 0 -34 -50 -38 -49 -18 -3 -6 0 0 0 0 0 0 0 0 0 0 0 0 0 0
0 0 0 0 0 0 0 0 0 0 0 0 0 0 0 0 0 0 0 0 0 0 0 0 -74 -120 0 0 0 -48 -38 -32 -31 -21 0 0 0 0 0 0 0 0 0 0 0 0 0 0 0
0 0 0 0 0 0 0 0 0 0 0 0 0 0 0 0 0 0 0 0 0 0 0 0 0 -58 0 0 0 0 0 -27 -16 -24 0 0 0 0 0 0 0 0 0 0 0 0 0 0 0
0 0 0 0 0 0 0 0 -3 0 0 0 0 0 0 0 0 0 0 0 0 0 0 0 0 0 -1 0 0 0 0 -1 -15 -23 0 0 0 0 0 0 0 0 0 0 0 0 0 0 0
0 0 0 0 0 0 0 -10 -2 -5 -18 -1 0 0 0 0 0 0 0 0 0 0 0 0 0 0 0 0 0 0 0 0 0 -16 0 0 0 0 0 0 0 0 0 0 0 0 0 0 0
0 0 0 0 0 0 0 0 0 0 0 0 0 0 0 0 0 0 0 0 0 0 0 0 0 0 0 0 -1 0 0 0 0 0 0 0 0 0 0 0 0 0 0 0 0 0 0 0 0
0 0 0 0 0 0 0 0 -4 -6 0 -10 0 0 0 0 0 0 0 0 0 0 0 0 0 0 0 0 0 0 0 0 0 0 0 0 0 0 0 0 0 0 0 0 0 0 0 0 0
0 0 0 0 0 0 0 0 -5 -10 -5 -5 -14 -15 0 0 0 0 0 0 0 0 0 0 0 0 0 0 0 0 0 0 0 0 0 0 0 0 0 0 0 0 0 0 0 0 0 0 0
Wind_Speed
nan nan nan nan nan nan nan nan nan nan nan nan nan nan nan nan nan nan 23 31 33 33 27 27 28 30 32 31 29 30 32 32 32 31 30 30 30 30 28 27 25 24 26 26 24 24 23 24 21
nan nan nan nan nan nan nan nan nan nan nan nan nan nan nan nan 33 33 33 31 32 33 30 27 30 31 31 34 31 29 32 32 33 32 32 32 32 32 32 31 28 27 26 27 26 25 24 25 25
nan nan nan nan nan nan nan nan nan nan nan nan nan nan nan nan 33 32 31 38 32 33 31 30 33 33 34 34 32 33 34 34 34 34 34 33 33 34 34 32 30 29 29 29 nan nan nan 27 27
nan nan nan nan nan nan nan nan nan nan nan nan nan nan nan 32 35 32 42 40 36 31 34 34 34 35 34 34 36 37 37 35 34 35 36 34 34 35 35 34 33 nan nan nan nan nan nan nan nan
nan nan nan nan nan nan nan nan nan nan nan nan nan nan nan 35 39 38 42 40 38 36 33 33 33 33 33 35 37 36 36 37 39 41 40 40 36 nan nan nan nan nan nan nan nan nan nan nan nan
nan nan nan nan nan nan nan nan nan nan nan nan nan nan nan 35 37 38 41 41 39 37 35 33 33 35 35 34 35 34 36 38 42 42 41 39 nan nan nan nan nan nan nan nan nan nan nan nan nan
nan nan nan nan nan nan nan nan nan nan nan nan nan nan nan 36 34 39 40 41 38 38 36 34 33 32 33 31 32 34 37 38 40 42 43 nan nan nan nan nan nan nan nan nan nan nan nan nan nan
nan nan nan nan nan nan nan nan nan nan nan nan nan nan nan 32 39 40 40 38 38 38 37 36 34 32 30 29 35 37 37 40 41 nan nan nan nan nan nan nan nan nan nan nan nan nan nan nan nan
nan nan nan nan nan nan nan nan nan nan nan nan nan nan 31 39 40 37 40 40 39 39 39 38 36 35 35 34 35 38 39 39 nan nan nan nan nan nan nan nan nan nan nan nan nan nan nan nan nan
nan nan nan nan nan nan nan nan nan nan nan nan nan nan 39 40 36 38 38 38 37 41 41 40 39 39 39 36 35 34 32 30 nan nan nan nan nan nan nan nan nan nan nan nan nan nan nan nan nan
nan nan nan nan nan nan nan nan nan nan nan nan nan nan nan 36 35 39 37 39 36 42 40 38 40 39 40 36 33 32 31 nan nan nan nan nan nan nan nan nan nan nan nan nan nan nan nan nan nan
nan nan nan nan nan nan nan nan nan nan nan nan nan nan nan 37 35 35 35 37 42 43 43 40 41 38 38 38 35 33 32 nan nan nan nan nan nan nan nan nan nan nan nan nan nan nan nan nan nan
nan nan nan nan nan nan nan nan nan nan nan nan nan nan nan nan 32 32 34 42 46 41 42 44 44 41 38 38 37 34 nan nan nan nan nan nan nan nan nan nan nan nan nan nan nan nan nan nan nan
nan nan nan nan nan nan nan nan nan nan nan nan nan nan nan nan nan nan 39 40 46 46 45 45 42 41 38 36 35 36 nan nan nan nan nan nan nan nan nan nan nan nan nan nan nan nan nan nan nan
nan nan nan nan nan nan nan nan nan nan nan nan nan nan nan nan nan nan nan 39 45 42 44 44 43 41 39 35 36 nan nan nan nan nan nan nan nan nan nan nan nan nan nan nan nan nan nan nan nan
nan nan nan nan nan nan nan nan nan nan nan nan nan nan nan nan nan nan nan 34 37 42 37 42 42 40 39 37 37 nan nan nan nan nan nan nan nan nan nan nan nan nan nan nan nan nan nan nan nan
nan nan nan nan nan nan nan nan nan nan nan nan nan nan nan nan nan nan nan nan 35 42 46 42 39 39 40 41 38 nan nan nan nan nan nan nan nan nan nan nan nan nan nan nan nan nan nan nan nan
nan nan nan nan nan nan nan nan nan nan nan nan nan nan nan nan nan nan nan nan 34 39 43 44 42 38 40 41 40 nan nan nan nan nan nan nan nan nan nan nan nan nan nan nan nan nan nan nan nan
nan nan nan nan nan nan nan nan nan nan nan nan nan nan nan nan nan nan nan nan 36 37 41 42 41 nan nan 38 nan 37 nan nan nan nan nan nan nan nan nan nan nan nan nan nan nan nan nan nan nan
nan nan nan nan nan nan nan nan nan nan nan nan nan nan nan nan nan nan nan nan nan 35 37 40 nan nan nan nan 36 nan nan nan nan nan nan nan nan nan nan nan nan nan nan nan nan nan nan nan nan
nan nan nan nan nan nan nan nan nan nan nan nan nan nan nan nan nan nan nan nan nan 30 30 nan nan nan nan nan nan nan nan nan nan nan nan nan nan nan nan nan nan nan nan nan nan nan nan nan nan
nan nan nan nan nan nan nan nan nan nan nan nan nan nan nan nan nan nan nan nan nan nan nan nan nan nan nan nan nan nan nan nan nan nan nan nan nan nan nan nan nan nan nan nan nan nan nan nan nan
nan nan nan nan nan nan nan nan nan nan nan nan nan nan nan nan nan nan nan nan nan nan nan nan nan nan nan nan nan nan nan nan nan nan nan nan nan nan nan nan nan nan nan nan nan nan nan nan nan
nan nan nan nan nan nan nan nan nan nan nan nan nan nan nan nan nan nan nan nan nan nan nan nan nan nan nan nan nan nan nan nan nan nan nan nan nan nan nan nan nan nan nan nan nan nan nan nan nan
nan nan nan nan nan nan nan nan nan nan nan nan nan nan nan nan nan nan nan nan nan nan nan nan nan nan nan nan nan nan nan nan nan nan nan nan nan nan nan nan nan nan nan nan nan nan nan nan nan
nan nan nan nan nan nan nan nan nan nan nan nan nan nan nan nan nan nan nan nan nan nan nan nan nan nan nan nan nan nan nan nan nan nan nan nan nan nan nan nan nan nan nan nan nan nan nan nan nan
nan nan nan nan nan nan nan nan nan nan nan nan nan nan nan nan nan nan nan nan nan nan nan nan nan nan nan nan nan nan nan nan nan nan nan nan nan nan nan nan nan nan nan nan nan nan nan nan nan
nan nan nan nan nan nan nan nan nan nan nan nan nan nan nan nan nan nan nan nan nan nan nan nan nan nan nan nan nan nan nan nan nan nan nan nan nan nan nan nan nan nan nan nan nan nan nan nan nan
nan nan nan nan nan nan nan nan nan nan nan nan nan nan nan nan nan nan nan nan nan nan nan nan nan nan nan nan nan nan nan nan nan nan nan nan nan nan nan nan nan nan nan nan nan nan nan nan nan
nan nan nan nan nan nan nan nan nan nan nan nan nan nan nan nan nan nan nan nan nan nan nan nan nan nan nan nan nan nan nan nan nan nan nan nan nan nan nan nan nan nan nan nan nan nan nan nan nan
Wind_Direction
nan nan nan nan nan nan nan nan nan nan nan nan nan nan nan nan nan nan 264 276 279 271 255 261 263 261 262 262 263 263 264 266 268 268 268 269 268 269 268 267 268 270 270 271 268 268 265 268 270
nan nan nan nan nan nan nan nan nan nan nan nan nan nan nan nan 249 261 258 276 272 272 269 262 263 266 266 266 265 264 266 265 267 268 269 269 270 269 264 263 260 263 268 266 266 268 268 265 265
nan nan nan nan nan nan nan nan nan nan nan nan nan nan nan nan 251 259 261 272 268 270 268 264 262 265 265 264 265 264 263 264 266 268 268 269 269 269 267 264 263 265 265 265 nan nan nan 268 270
nan nan nan nan nan nan nan nan nan nan nan nan nan nan nan 242 255 261 266 267 264 263 266 270 267 266 266 265 263 263 264 265 267 268 268 267 266 266 267 266 265 nan nan nan nan nan nan nan nan
nan nan nan nan nan nan nan nan nan nan nan nan nan nan nan 244 255 257 264 263 263 260 259 266 267 269 266 266 268 266 268 269 267 265 266 268 266 nan nan nan nan nan nan nan nan nan nan nan nan
nan nan nan nan nan nan nan nan nan nan nan nan nan nan nan 255 256 256 258 257 264 264 261 259 260 262 263 266 269 269 267 268 268 268 266 267 nan nan nan nan nan nan nan nan nan nan nan nan nan
nan nan nan nan nan nan nan nan nan nan nan nan nan nan nan 257 263 260 257 256 257 260 260 257 254 259 265 265 266 267 269 268 265 264 264 nan nan nan nan nan nan nan nan nan nan nan nan nan nan
nan nan nan nan nan nan nan nan nan nan nan nan nan nan nan 253 261 262 259 256 256 257 256 257 256 254 254 257 263 264 266 267 267 nan nan nan nan nan nan nan nan nan nan nan nan nan nan nan nan
nan nan nan nan nan nan nan nan nan nan nan nan nan nan 256 259 257 254 253 252 253 253 256 254 255 254 254 257 261 263 265 267 nan nan nan nan nan nan nan nan nan nan nan nan nan nan nan nan nan
nan nan nan nan nan nan nan nan nan nan nan nan nan nan 270 262 249 257 257 254 252 251 250 256 258 262 261 260 260 262 264 258 nan nan nan nan nan nan nan nan nan nan nan nan nan nan nan nan nan
nan nan nan nan nan nan nan nan nan nan nan nan nan nan nan 256 255 254 249 253 258 258 252 255 258 263 267 264 257 257 255 nan nan nan nan nan nan nan nan nan nan nan nan nan nan nan nan nan nan
nan nan nan nan nan nan nan nan nan nan nan nan nan nan nan 264 261 251 252 251 253 259 265 257 260 261 265 264 261 257 258 nan nan nan nan nan nan nan nan nan nan nan nan nan nan nan nan nan nan
nan nan nan nan nan nan nan nan nan nan nan nan nan nan nan nan 256 248 249 251 251 255 255 261 262 258 262 265 263 258 nan nan nan nan nan nan nan nan nan nan nan nan nan nan nan nan nan nan nan
nan nan nan nan nan nan nan nan nan nan nan nan nan nan nan nan nan nan 249 249 254 257 258 257 261 260 260 262 266 261 nan nan nan nan nan nan nan nan nan nan nan nan nan nan nan nan nan nan nan
nan nan nan nan nan nan nan nan nan nan nan nan nan nan nan nan nan nan nan 251 263 260 259 263 263 264 267 268 267 nan nan nan nan nan nan nan nan nan nan nan nan nan nan nan nan nan nan nan nan
nan nan nan nan nan nan nan nan nan nan nan nan nan nan nan nan nan nan nan 255 261 263 265 263 263 268 266 263 260 nan nan nan nan nan nan nan nan nan nan nan nan nan nan nan nan nan nan nan nan
nan nan nan nan nan nan nan nan nan nan nan nan nan nan nan nan nan nan nan nan 263 264 265 265 264 264 263 257 255 nan nan nan nan nan nan nan nan nan nan nan nan nan nan nan nan nan nan nan nan
nan nan nan nan nan nan nan nan nan nan nan nan nan nan nan nan nan nan nan nan 262 264 263 261 260 264 259 253 249 nan nan nan nan nan nan nan nan nan nan nan nan nan nan nan nan nan nan nan nan
nan nan nan nan nan nan nan nan nan nan nan nan nan nan nan nan nan nan nan nan 262 258 260 262 261 nan nan 253 nan 251 nan nan nan nan nan nan nan nan nan nan nan nan nan nan nan nan nan nan nan
nan nan nan nan nan nan nan nan nan nan nan nan nan nan nan nan nan nan nan nan nan 263 262 263 nan nan nan nan 247 nan nan nan nan nan nan nan nan nan nan nan nan nan nan nan nan nan nan nan nan
nan nan nan nan nan nan nan nan nan nan nan nan nan nan nan nan nan nan nan nan nan 265 263 nan nan nan nan nan nan nan nan nan nan nan nan nan nan nan nan nan nan nan nan nan nan nan nan nan nan
nan nan nan nan nan nan nan nan nan nan nan nan nan nan nan nan nan nan nan nan nan nan nan nan nan nan nan nan nan nan nan nan nan nan nan nan nan nan nan nan nan nan nan nan nan nan nan nan nan
nan nan nan nan nan nan nan nan nan nan nan nan nan nan nan nan nan nan nan nan nan nan nan nan nan nan nan nan nan nan nan nan nan nan nan nan nan nan nan nan nan nan nan nan nan nan nan nan nan
nan nan nan nan nan nan nan nan nan nan nan nan nan nan nan nan nan nan nan nan nan nan nan nan nan nan nan nan nan nan nan nan nan nan nan nan nan nan nan nan nan nan nan nan nan nan nan nan nan
nan nan nan nan nan nan nan nan nan nan nan nan nan nan nan nan nan nan nan nan nan nan nan nan nan nan nan nan nan nan nan nan nan nan nan nan nan nan nan nan nan nan nan nan nan nan nan nan nan
nan nan nan nan nan nan nan nan nan nan nan nan nan nan nan nan nan nan nan nan nan nan nan nan nan nan nan nan nan nan nan nan nan nan nan nan nan nan nan nan nan nan nan nan nan nan nan nan nan
nan nan nan nan nan nan nan nan nan nan nan nan nan nan nan nan nan nan nan nan nan nan nan nan nan nan nan nan nan nan nan nan nan nan nan nan nan nan nan nan nan nan nan nan nan nan nan nan nan
nan nan nan nan nan nan nan nan nan nan nan nan nan nan nan nan nan nan nan nan nan nan nan nan nan nan nan nan nan nan nan nan nan nan nan nan nan nan nan nan nan nan nan nan nan nan nan nan nan
nan nan nan nan nan nan nan nan nan nan nan nan nan nan nan nan nan nan nan nan nan nan nan nan nan nan nan nan nan nan nan nan nan nan nan nan nan nan nan nan nan nan nan nan nan nan nan nan nan
nan nan nan nan nan nan nan nan nan nan nan nan nan nan nan nan nan nan nan nan nan nan nan nan nan nan nan nan nan nan nan nan nan nan nan nan nan nan nan nan nan nan nan nan nan nan nan nan nan